Regional Weather Roundup
Issued by NWS

Home | Current Version | Previous Version | Text Only | Print | Product List | Glossary On
Versions: 1 2 3 4 5 6 7 8 9 10 11 12 13 14 15 16 17 18 19 20 21 22 23 24 25 26 27 28 29 30 31 32 33 34 35 36 37 38 39 40 41 42 43 44 45 46 47 48 49 50
000
ASUS42 KTBW 011616
RWRFL
FLORIDA REGIONAL WEATHER ROUNDUP
NATIONAL WEATHER SERVICE TAMPA BAY RUSKIN FL
1200 PM EDT TUE SEP 01 2015

NOTE: "FAIR" INDICATES FEW OR NO CLOUDS BELOW 12,000 FEET WITH NO
SIGNIFICANT WEATHER AND/OR OBSTRUCTIONS TO VISIBILITY.


FLZ001>010-012>015-112-114-115-011700-
PANHANDLE FLORIDA

CITY           SKY/WX    TMP DP  RH WIND       PRES   REMARKS
PENSACOLA      SUNNY     89  67  47 NE7       30.08S
PENSACOLA NAS  PTSUNNY   90  68  48 N5        30.08S
MILTON NAS     PTSUNNY   89  65  44 NW7       30.10
CRESTVIEW      PTSUNNY   87  69  54 NW6       30.11R
DUKE FIELD     PTSUNNY   88  66  48 N9        30.08F
VALPARAISO     PTSUNNY   91  67  46 N8        30.08R
MARY ESTHER    PTSUNNY   87  67  50 N9        30.07S
PANAMA CITY    FAIR      90  71  53 NW7       30.06F HX  96
TYNDALL AFB    SUNNY     90  72  55 N8        30.06F HX  96
APALACHICOLA   PTSUNNY   80  75  84 NE7       30.08R

STATION/POSITION SKY/WX   TEMP    WIND        PRES    WAVE   SWELL
                          AIR SEA DIR/SP/G            HT/PER HT/PER
                          (F)     (DEG/KT/KT) (MB)    (FT/S) (FT/S)
30.1N   87.6W              83 85   20/  8/ 10 1018.2R   1/ 6   2/ 6
29.2N   88.2W              84 87   50/ 10/ 12 1019.3R   1/ 6   2/ 6
28.8N   86.0W              81 86   40/ 16/ 21 1018.2R   2/ 4
PANAMA CITY BEAC           85 85   20/  6/ 10 1018.3S
CAPE SAN BLAS    NOT AVBL
TOWER C                    80      20/ 12/ 13 1018.1R
28.5N   84.5W              78 85   30/ 10/ 10 1017.6F   2/ 6   2/ 6

$$
FLZ011-016>038-118-127-128-134-139-239-011700-
NORTH FLORIDA

CITY           SKY/WX    TMP DP  RH WIND       PRES   REMARKS
MARIANNA       MOSUNNY   89  72  56 NE8       30.08F HX  96
TALLAHASSEE    CLOUDY    86  74  67 N5        30.09R
PERRY          MOSUNNY   88  75  65 E6        30.09S HX  97
CROSS CITY       N/A     81  76  84 CALM      30.09S
LAKE CITY      FAIR      84  77  79 CALM      30.09F
GAINESVILLE    PTSUNNY   84  76  76 S5        30.10S
MAYPORT NAS    PTSUNNY   86  77  74 E7        30.08F HX  97
JACKSONVILLE   PTSUNNY   82  75  79 CALM      30.08F
JAX NAS        PTSUNNY   89  73  59 S8        30.09F HX  97
JAX CRAIG      MOSUNNY   88  73  61 VRB7      30.08F HX  95
JAX CECIL      PTSUNNY   84  75  74 CALM      30.10S
FERNANDINA BEA FAIR      86  77  74 E6        30.07F HX  97
ST AUGUSTINE   PTSUNNY   85  79  82 E12       30.10S HX  98

STATION/POSITION SKY/WX   TEMP    WIND        PRES    WAVE   SWELL
                          AIR SEA DIR/SP/G            HT/PER HT/PER
                          (F)     (DEG/KT/KT) (MB)    (FT/S) (FT/S)
SHELL POINT                79      20/  6/  9   N/A
KEATON BEACH               83      70/  6/  7 1018.6R
CEDAR KEY                  78     210/ 13/ 15 1019.2R
FERNANDINA                 79 85   70/  5/  8 1018.8R
30.7N   81.3W                 84                N/A     2/ 8
MAYPORT                    81 85   60/  5/  7 1019.4R
31.4N   80.9W              79 84  120/  2/  4 1019.7R   2/10   2/10
ST AUGUSTINE               81 83  140/  8/  8 1020.0R

$$
FLZ040-043>046-052-053-057-058-063-144-011700-
INTERIOR CENTRAL FLORIDA

CITY           SKY/WX    TMP DP  RH WIND       PRES   REMARKS
OCALA          PTSUNNY   86  75  70 S7        30.10R HX  95
THE VILLAGES     N/A     88  75  66 S9        30.00S HX  97
LEESBURG       SUNNY     87  75  67 S7        30.10S HX  96
SANFORD        MOSUNNY   88  75  65 S10       30.09S HX  97
ORLANDO EXEC   MOSUNNY   87  77  72 S9        30.10R HX  99
ORLANDO INTL   MOSUNNY   86  76  71 S8        30.10S HX  96
KISSIMMEE      MOSUNNY   88  79  74 S12       30.10F HX 102
WINTER HAVEN   SUNNY     87  76  69 S8        30.11S HX  97
LAKELAND       PTSUNNY   88  75  66 S8        30.10S HX  97
BARTOW         MOSUNNY   86  73  66 S7        30.11S
OKEECHOBEE     MOSUNNY   88  75  66 S6        30.11S HX  97

$$
FLZ041-047-054-059-064-141-147-011700-
EAST CENTRAL FLORIDA

CITY           SKY/WX    TMP DP  RH WIND       PRES   REMARKS
ORMOND BEACH   MOSUNNY   86  75  70 SW6       30.10S HX  95
DAYTONA BEACH  MOSUNNY   86  75  69 S7        30.10S HX  95
DELAND           N/A     86  75  70 S3        30.11S HX  95
NEW SMYRNA BEA MOSUNNY   86  73  66 SW6       30.11S
TITUSVILLE     MOSUNNY   88  73  62 VRB5      30.10F HX  96
CAPE CANAVERAL SUNNY     90  79  69 SE5       30.09S HX 106
PATRICK AFB    SUNNY     87  76  70 SE8       30.09F HX  98
MELBOURNE      MOSUNNY   86  75  69 VRB6      30.10F HX  95
VERO BEACH     MOSUNNY   89  73  59 E5        30.10S HX  97
FT PIERCE      MOSUNNY   90  74  59 SE7       30.10S HX  99
STUART         MOSUNNY   86  73  66 E7        30.11S

STATION/POSITION SKY/WX   TEMP    WIND        PRES    WAVE   SWELL
                          AIR SEA DIR/SP/G            HT/PER HT/PER
                          (F)     (DEG/KT/KT) (MB)    (FT/S) (FT/S)
28.5N   80.2W              83 85  170/  4/  4 1019.7R
28.9N   78.5W              85 86  170/  6/  6 1019.9F
TRIDENT PIER               85 86  140/  3/  7 1020.1R
28.4N   80.5W                 85                N/A     2/11
27.5N   80.2W                 85                N/A     2/10

$$
FLZ050-056-061-142-242-148-248-149-249-151-251-155-255-
160-260-011700-
WEST CENTRAL FLORIDA

CITY           SKY/WX    TMP DP  RH WIND       PRES   REMARKS
CRYSTAL RIVER  FAIR      86  77  74 CALM      30.08F HX  97
INVERNESS      PTSUNNY   86  77  74 S7        30.09S HX  97
BROOKSVILLE    CLOUDY    85  77  77 S10       30.09S HX  95
CLEARWATER     CLOUDY    79  74  84 W21G29    30.10R
TAMPA INTL     PTSUNNY   88  76  67 S12       30.09R HX  99
TAMPA EXEC     MOSUNNY   90  77  66 S7        30.09S HX 102
PLANT CITY     MOSUNNY   90  79  70 S8        30.12S HX 105
MACDILL AFB    MOSUNNY   90  81  76 S12       30.09R HX 109
PETER O KNIGHT MOSUNNY   90  79  70 S10       30.09R HX 105
ST PETERSBURG  PTSUNNY   89  76  65 SW16      30.07R HX 100
SARASOTA       MOSUNNY   88  77  69 S16G22    30.07R HX 100
VENICE         FAIR      86  79  79 S13       30.10R HX  99

STATION/POSITION SKY/WX   TEMP    WIND        PRES    WAVE   SWELL
                          AIR SEA DIR/SP/G            HT/PER HT/PER
                          (F)     (DEG/KT/KT) (MB)    (FT/S) (FT/S)
CEDAR KEY                  78     210/ 13/ 15 1019.2R
28.5N   84.5W              78 85   30/ 10/ 10 1017.6F   2/ 6   2/ 6
27.3N   84.2W                 86                N/A     3/ 4
CLEARWATER BEACH           80 85  240/ 11/ 14 1018.5R
MIDDLE TAMPA BAY           85     180/ 11/ 14 1018.7R
VENICE                     84 86  160/ 11/ 12 1018.4R

$$
FLZ066-069-070-075>078-162-262-165-265-011700-
SOUTHWEST FLORIDA AND KEYS

CITY           SKY/WX    TMP DP  RH WIND       PRES   REMARKS
PUNTA GORDA    SUNNY     88  76  67 S10       30.10S HX  99
FT MYERS       MOSUNNY   88  75  65 SE10      30.08S HX  97
SOUTHWEST INTL SUNNY     88  76  67 SE7       30.09S HX  99
NAPLES         MOSUNNY   89  77  67 SE8       30.08F HX 101
MARCO ISLAND   MOSUNNY   90  73  58 SE7       30.08F HX  98
MARATHON       MOSUNNY   90  79  70 SE7       30.08F HX 106
KEY WEST NAS   MOSUNNY   90  77  65 SE10      30.08S HX 103
KEY WEST INTL  MOSUNNY   88  78  72 SE10      30.08F HX 101

STATION/POSITION SKY/WX   TEMP    WIND        PRES    WAVE   SWELL
                          AIR SEA DIR/SP/G            HT/PER HT/PER
                          (F)     (DEG/KT/KT) (MB)    (FT/S) (FT/S)
VENICE                     84 86  160/ 11/ 12 1018.4R
NAPLES                        85              1020.0R
26.0N   85.6W              85 87  230/  8/ 10 1017.7R   2/ 5   2/ 5
DRY TORTUGAS                                    N/A
NW FL BAY                  86     140/  9/ 10 1018.9
SAND KEY                   86     130/  8     1018.6F
LONG KEY                   86 86  140/  8/  9 1019.4F
MOLASSES REEF              85 87  140/  8/  9 1018.9F

$$
FLZ067-068-071>074-168-172>174-011700-
SOUTHEAST FLORIDA

CITY           SKY/WX    TMP DP  RH WIND       PRES   REMARKS
W PALM BEACH   MOSUNNY   89  76  65 SE9       30.10F HX 100
FT LAUDER-EXEC PTSUNNY   90  76  63 SE12      30.08F HX 101
FT LAUDERDALE  PTSUNNY   87  79  76 SE12      30.09F HX 101
POMPANO BEACH  MOSUNNY   90  77  65 SE12      30.09F HX 103
PEMBROKE PINES MOSUNNY   90  74  59 E12       30.10F HX  99
OPA LOCKA      MOSUNNY   90  76  63 SE8       30.09F HX 101
MIAMI          PTSUNNY   89  76  65 SE13G18   30.09F HX 100
WEST KENDALL   MOSUNNY   90  78  68 SE9       30.09F HX 104
HOMESTEAD      SUNNY     89  76  65 E7        30.09F HX 100

STATION/POSITION SKY/WX   TEMP    WIND        PRES    WAVE   SWELL
                          AIR SEA DIR/SP/G            HT/PER HT/PER
                          (F)     (DEG/KT/KT) (MB)    (FT/S) (FT/S)
PORT EVERGLADES            86     140/  8/ 10 1019.0F
VIRGINIA KEY               85 85  130/  7/ 10 1019.3R
LAKE WORTH                 85 87  160/  5/  6 1019.3R
SETTLEMENT POINT           86     190/  6/  7 1020.2F

$$




USA.gov is the U.S. government's official web portal to all federal, state and local government web resources and services.